Printer-friendly version

IAU Minor Planet Center

Minor Planet Center

MPEC 2006-K82 : 2006 KF100

The following Minor Planet Electronic Circular may be linked-to from your own Web pages, but must not otherwise be redistributed electronically.


Read MPEC 2006-K81 Read MPEC 2006-K83


M.P.E.C. 2006-K82                                Issued 2006 May 31, 13:01 UT

     The Minor Planet Electronic Circulars contain information on unusual
         minor planets and routine data on comets.  They are published
   on behalf of Commission 20 of the International Astronomical Union by the
          Minor Planet Center, Smithsonian Astrophysical Observatory,
                          Cambridge, MA 02138, U.S.A.

                  Supported in part by the Brinson Foundation
                  Supported in part by the TABASGO Foundation
             Prepared using the Tamkin Foundation Computer Network

                              MPC@CFA.HARVARD.EDU
          URL http://cfa-www.harvard.edu/iau/mpc.html  ISSN 1523-6714

                                  2006 KF100

Observations:
     K06KA0F* C2006 05 30.16389 12 38 21.15 +00 48 10.0          21.6 V EK082G96
     K06KA0F  C2006 05 30.17240 12 38 20.61 +00 47 53.8          22.0 V EK082G96
     K06KA0F  C2006 05 30.18083 12 38 20.04 +00 47 37.0          21.6 V EK082G96
     K06KA0F  C2006 05 30.18925 12 38 19.46 +00 47 20.6          21.6 V EK082G96
     K06KA0F  C2006 05 30.27830 12 38 13.48 +00 44 28.8          20.8 V EK082G96
     K06KA0F  C2006 05 30.28728 12 38 12.94 +00 44 11.6          20.6 V EK082G96
     K06KA0F  C2006 05 30.29626 12 38 12.33 +00 43 54.1          20.9 V EK082G96
     K06KA0F  C2006 05 30.30524 12 38 11.76 +00 43 36.2          21.1 V EK082G96
     K06KA0F  C2006 05 31.15179 12 37 20.90 +00 16 14.3          21.8 V EK082291
     K06KA0F  C2006 05 31.15737 12 37 20.57 +00 16 03.3          21.6 V EK082291
     K06KA0F  C2006 05 31.15885 12 37 20.42 +00 16 00.2          20.4 V EK082G96
     K06KA0F  C2006 05 31.16151 12 37 20.31 +00 15 55.4          21.8 V EK082291
     K06KA0F  C2006 05 31.16476 12 37 20.02 +00 15 48.6          20.9 V EK082G96
     K06KA0F  C2006 05 31.17072 12 37 19.66 +00 15 37.5          20.7 V EK082G96
     K06KA0F  C2006 05 31.17668 12 37 19.27 +00 15 25.8          20.6 V EK082G96
     K06KA0F  C2006 05 31.17887 12 37 19.12 +00 15 21.5          20.6 V EK082G96
     K06KA0F  C2006 05 31.18612 12 37 18.69 +00 15 07.3          20.6 V EK082G96
     K06KA0F  C2006 05 31.19329 12 37 18.22 +00 14 53.5          20.7 V EK082G96
     K06KA0F  C2006 05 31.20047 12 37 17.76 +00 14 39.3          20.7 V EK082G96

Observer details:
291 LPL/Spacewatch II.  Observer J. V. Scotti.  1.8-m f/2.7 reflector + CCD.
G96 Mt. Lemmon Survey.  Observer A. D. Grauer.  Measurers E. C. Beshore,
    E. J. Christensen, G. J. Garradd, A. R. Gibbs, A. D. Grauer, R. E. Hill,
    R. A. Kowalski, S. M. Larson, R. H. McNaught.  1.5-m reflector + CCD.

Orbital elements:
2006 KF100                                               Earth MOID = 0.2886 AU
Epoch 2006 Mar. 6.0 TT = JDT 2453800.5                  MPC
M 309.44447              (2000.0)            P               Q
n   0.31028190     Peri.  238.41035     +0.28640517     +0.90939081
a   2.1608855      Node    51.34639     -0.69472192     +0.41391011
e   0.4560832      Incl.   22.72080     -0.65979810     -0.04107043
P   3.18           H   19.8           G   0.15           U   9
Residuals in seconds of arc
060530 G96  0.4-  0.2+    060530 G96  0.3+  0.4-    060531 G96  0.4-  0.1+
060530 G96  0.2+  0.4+    060531 291  0.1-  0.1+    060531 G96  0.5-  0.1+
060530 G96  0.2+  0.1-    060531 291  0.3+  0.1-    060531 G96  0.0   0.0
060530 G96  0.0   0.2-    060531 G96  0.3-  0.2-    060531 G96  0.1-  0.2+
060530 G96  0.4-  0.1+    060531 291  0.4+  0.1+    060531 G96  0.1-  0.0
060530 G96  0.4+  0.2+    060531 G96  0.6-  0.3-
060530 G96  0.0   0.1+    060531 G96  0.3-  0.2+

Ephemeris:
2006 KF100               a,e,i = 2.16, 0.46, 23                  q = 1.1753
Date    TT    R. A. (2000) Decl.     Delta      r     Elong.  Phase     V
2006 05 25    12 44.53   +03 30.3    0.609    1.450   124.9    34.9    21.0
2006 06 04    12 33.97   -01 50.3    0.619    1.396   115.3    41.0    21.1
2006 06 14    12 29.12   -07 32.0    0.636    1.346   106.9    46.2    21.2
2006 06 24    12 29.58   -13 24.0    0.658    1.300    99.7    50.4    21.3
2006 07 04    12 34.92   -19 21.3    0.680    1.260    93.8    53.6    21.4
2006 07 14    12 44.83   -25 21.2    0.701    1.226    89.2    56.0    21.5
2006 07 24    12 59.32   -31 21.6    0.720    1.201    85.7    57.5    21.6
2006 08 03    13 18.98   -37 19.7    0.736    1.184    83.4    58.4    21.6
2006 08 13    13 44.94   -43 09.6    0.751    1.176    82.1    58.6    21.6
2006 08 23    14 19.15   -48 39.6    0.765    1.178    81.8    58.2    21.7
2006 09 02    15 04.31   -53 29.5    0.780    1.189    82.3    57.2    21.7
2006 09 12    16 02.61   -57 05.7    0.798    1.210    83.4    55.7    21.7
2006 09 22    17 12.73   -58 45.0    0.822    1.239    84.9    53.8    21.8
2006 10 02    18 26.83   -57 56.9    0.855    1.276    86.5    51.5    21.9
2006 10 12    19 34.38   -54 48.3    0.899    1.319    87.9    49.2    22.0

Kyle E. Smalley              (C) Copyright 2006 MPC           M.P.E.C. 2006-K82

Read MPEC 2006-K81 Read MPEC 2006-K83


Our Web policy. Index to the CBAT/MPC/ICQ pages.


Valid HTML 4.01!